CAPE
0 0 0 0 0 0 0 0 0 0 0 0 0 0 0 0 0 0 0 0 0 0 0 0 0 0 0 0 0 0 8 105 169 149 109 85 66 81 85 129 91 38 2 0
0 0 0 0 0 0 0 0 0 0 0 0 0 0 0 0 0 0 0 0 0 0 0 0 0 0 0 0 0 0 0 28 85 139 127 102 85 63 49 16 45 61 9 2
0 0 0 0 0 0 0 0 0 0 0 0 0 0 0 0 0 0 0 0 0 0 0 0 0 0 0 0 0 0 0 0 55 140 65 0 0 0 4 0 0 3 21 2
0 0 0 0 0 0 0 0 0 0 0 0 0 0 0 0 0 0 0 0 0 0 0 0 0 0 0 0 0 0 0 0 1 62 36 49 74 64 3 3 0 0 0 4
0 0 0 0 0 0 0 0 0 0 0 0 0 0 0 0 0 0 0 0 0 0 0 0 0 0 0 0 0 0 0 0 0 0 15 5 18 0 0 0 0 0 0 0
0 0 0 0 0 0 0 0 0 0 0 0 0 0 0 0 0 0 0 0 0 0 0 0 0 0 0 0 0 0 0 0 0 0 0 0 0 0 0 0 0 0 0 0
0 0 0 0 0 0 0 0 0 0 0 0 0 0 0 0 0 0 0 0 0 0 0 0 0 0 0 0 0 0 0 0 0 0 0 0 0 0 0 0 0 0 0 0
0 0 0 0 0 0 0 0 0 0 0 0 0 0 0 0 0 0 0 0 0 0 0 0 0 0 0 0 0 0 0 0 0 0 0 0 0 0 0 0 0 0 0 0
0 0 0 0 0 0 0 0 0 0 0 0 0 0 0 0 0 0 0 0 0 0 0 0 0 0 0 0 0 0 0 0 0 0 0 0 0 0 0 0 0 0 0 0
0 0 0 0 0 0 0 0 0 0 0 0 0 0 0 0 0 0 0 0 0 0 0 0 0 0 0 0 0 0 0 0 0 0 0 0 0 0 0 0 0 0 0 0
0 0 0 0 0 0 0 0 0 0 0 0 0 0 0 0 0 0 0 0 0 0 0 0 0 0 0 0 0 0 0 0 0 0 0 0 0 0 0 0 0 0 0 0
0 0 0 0 0 0 0 0 0 0 0 0 0 0 0 0 0 0 0 0 0 0 0 0 0 0 0 0 0 0 0 0 0 0 0 0 0 0 0 0 0 0 0 0
0 0 0 0 0 0 0 0 0 0 0 0 0 0 0 0 0 0 0 0 0 0 0 0 0 0 0 0 0 0 0 0 0 0 0 0 0 0 0 0 0 0 0 0
0 0 0 0 0 0 0 0 0 0 0 0 0 0 0 0 0 0 0 0 0 0 0 0 0 0 0 0 0 0 0 0 0 0 0 0 0 0 0 0 0 0 0 0
0 0 0 0 0 0 0 0 0 0 0 0 0 0 0 0 0 0 0 0 0 0 0 0 0 0 0 0 0 0 0 0 0 0 0 0 0 0 0 0 0 0 0 0
0 0 0 0 0 0 0 0 0 0 0 0 0 0 0 0 0 0 0 0 0 0 0 0 0 0 0 0 0 0 0 0 0 0 0 0 0 0 0 0 0 0 0 0
0 0 0 0 0 0 0 0 0 0 0 0 0 0 0 0 0 0 0 0 0 0 0 0 0 0 0 0 0 0 0 0 0 0 0 0 0 0 0 0 0 0 0 0
0 0 0 0 0 0 0 0 0 0 0 0 0 0 0 0 0 0 0 0 0 0 0 0 0 0 0 0 0 0 0 0 0 0 0 0 0 0 0 0 0 0 0 0
0 0 0 0 0 0 0 0 0 0 0 0 0 0 0 0 0 0 0 0 0 0 0 0 0 0 0 0 0 0 0 0 0 0 0 0 0 0 0 0 0 0 0 0
0 0 0 0 0 0 0 0 0 0 0 0 0 0 0 0 0 0 0 0 0 0 0 0 0 0 0 0 0 0 0 0 0 0 0 0 0 0 0 0 0 0 0 0
1 0 0 0 0 0 0 0 0 0 0 0 0 0 0 0 0 0 0 0 0 0 0 0 0 0 0 0 0 0 0 0 0 0 0 0 0 0 0 0 0 0 0 0
0 0 0 0 0 0 0 0 0 0 0 0 0 0 0 0 0 0 0 0 0 0 0 0 0 0 0 0 0 0 0 0 0 0 0 0 0 0 0 0 0 0 0 0
0 0 0 0 0 0 0 0 0 0 0 0 0 0 0 0 0 0 0 0 0 0 0 0 0 0 0 0 0 0 0 0 0 0 0 0 0 0 0 0 0 0 0 0
0 0 0 0 0 0 0 0 0 0 0 0 0 0 0 0 0 0 0 0 0 0 0 0 0 0 0 0 0 0 0 0 0 0 0 0 0 0 0 0 0 0 0 0
0 0 0 0 0 0 0 0 0 0 0 0 0 0 0 0 0 0 0 0 0 0 0 0 0 0 0 0 0 0 0 0 0 0 0 0 0 0 0 0 0 0 0 0
0 0 0 0 0 0 0 0 0 0 0 0 0 0 0 0 0 0 0 0 0 0 0 0 0 0 0 0 0 0 0 0 0 2 1 0 0 0 0 0 0 1 0 0
CIN
-0 -0 -0 -0 -0 -0 -0 -0 -0 -0 -0 -0 -0 -0 -0 -0 -0 -0 -0 -0 -0 -0 -0 -0 -0 -0 -0 -0 -0 -0 -696 -514 -440 -416 -398 -395 -383 -326 -275 -195 -164 -173 -28 -0
-0 -0 -0 -0 -0 -0 -0 -0 -0 -0 -0 -0 -0 -0 -0 -0 -0 -0 -0 -0 -0 -0 -0 -0 -0 -0 -0 -0 -0 -0 -0 -634 -521 -438 -399 -391 -369 -394 -335 -225 -244 -164 -150 -0
-0 -0 -0 -0 -0 -0 -0 -0 -0 -0 -0 -0 -0 -0 -0 -0 -0 -0 -0 -0 -0 -0 -0 -0 -0 -0 -0 -0 -0 -0 -0 -0 -601 -477 -476 -0 -0 -0 -226 -0 -0 -121 -174 -43
-0 -0 -0 -0 -0 -0 -0 -0 -0 -0 -0 -0 -0 -0 -0 -0 -0 -0 -0 -0 -0 -0 -0 -0 -0 -0 -0 -0 -0 -0 -0 -0 -111 -567 -536 -459 -406 -404 -86 -73 -0 -0 -0 -27
-0 -0 -0 -0 -0 -0 -0 -0 -0 -0 -0 -0 -0 -0 -0 -0 -0 -0 -0 -0 -0 -0 -0 -0 -0 -0 -0 -0 -0 -0 -0 -0 -0 -0 -559 -511 -451 -0 -0 -0 -0 -0 -0 -0
-0 -0 -0 -0 -0 -0 -0 -0 -0 -0 -0 -0 -0 -0 -0 -0 -0 -0 -0 -0 -0 -0 -0 -0 -0 -0 -0 -0 -0 -0 -0 -0 -0 -0 -0 -0 -0 -0 -0 -0 -0 -0 -0 -0
-0 -0 -0 -0 -0 -0 -0 -0 -0 -0 -0 -0 -0 -0 -0 -0 -0 -0 -0 -0 -0 -0 -0 -0 -0 -0 -0 -0 -0 -0 -0 -0 -0 -0 -0 -0 -0 -0 -0 -0 -0 -0 -0 -0
-0 -0 -0 -0 -0 -0 -0 -0 -0 -0 -0 -0 -0 -0 -0 -0 -0 -0 -0 -0 -0 -0 -0 -0 -0 -0 -0 -0 -0 -0 -0 -0 -0 -0 -0 -0 -0 -0 -0 -0 -0 -0 -0 -0
-0 -0 -0 -0 -0 -0 -0 -0 -0 -0 -0 -0 -0 -0 -0 -0 -0 -0 -0 -0 -0 -0 -0 -0 -0 -0 -0 -0 -0 -0 -0 -0 -0 -0 -0 -0 -0 -0 -0 -0 -0 -0 -0 -0
-0 -0 -0 -0 -0 -0 -0 -0 -0 -0 -0 -0 -0 -0 -0 -0 -0 -0 -0 -0 -0 -0 -0 -0 -0 -0 -0 -0 -0 -0 -0 -0 -0 -0 -0 -0 -0 -0 -0 -0 -0 -0 -0 -0
-0 -0 -0 -0 -0 -0 -0 -0 -0 -0 -0 -0 -0 -0 -0 -0 -0 -0 -0 -0 -0 -0 -0 -0 -0 -0 -0 -0 -0 -0 -0 -0 -0 -0 -0 -0 -0 -0 -0 -0 -0 -0 -0 -0
-0 -0 -0 -0 -0 -0 -0 -0 -0 -0 -0 -0 -0 -0 -0 -0 -0 -0 -0 -0 -0 -0 -0 -0 -0 -0 -0 -0 -0 -0 -0 -0 -0 -0 -0 -0 -0 -0 -0 -0 -0 -0 -0 -0
-0 -0 -0 -0 -0 -0 -0 -0 -0 -0 -0 -0 -0 -0 -0 -0 -0 -0 -0 -0 -0 -0 -0 -0 -0 -0 -0 -0 -0 -0 -0 -0 -0 -0 -0 -0 -0 -0 -0 -0 -0 -0 -0 -0
-0 -0 -0 -0 -0 -0 -0 -0 -0 -0 -0 -0 -0 -0 -0 -0 -0 -0 -0 -0 -0 -0 -0 -0 -0 -0 -0 -0 -0 -0 -0 -0 -0 -0 -0 -0 -0 -0 -0 -0 -0 -0 -0 -0
-0 -0 -0 -0 -0 -0 -0 -0 -0 -0 -0 -0 -0 -0 -0 -0 -0 -0 -0 -0 -0 -0 -0 -0 -0 -0 -0 -0 -0 -0 -0 -0 -0 -0 -0 -0 -0 -0 -0 -0 -0 -0 -0 -0
-0 -0 -0 -0 -0 -0 -0 -0 -0 -0 -0 -0 -0 -0 -0 -0 -0 -0 -0 -0 -0 -0 -0 -0 -0 -0 -0 -0 -0 -0 -0 -0 -0 -0 -0 -0 -0 -0 -0 -0 -0 -0 -0 -0
-0 -0 -0 -0 -0 -0 -0 -0 -0 -0 -0 -0 -0 -0 -0 -0 -0 -0 -0 -0 -0 -0 -0 -0 -0 -0 -0 -0 -0 -0 -0 -0 -0 -0 -0 -0 -0 -0 -0 -0 -0 -0 -0 -0
-0 -0 -0 -0 -0 -0 -0 -0 -0 -0 -0 -0 -0 -0 -0 -0 -0 -0 -0 -0 -0 -0 -0 -0 -0 -0 -0 -0 -0 -0 -0 -0 -0 -0 -0 -0 -0 -0 -0 -0 -0 -0 -0 -0
-0 -0 -0 -0 -0 -0 -0 -0 -0 -0 -0 -0 -0 -0 -0 -0 -0 -0 -0 -0 -0 -0 -0 -0 -0 -0 -0 -0 -0 -0 -0 -0 -0 -0 -0 -0 -0 -0 -0 -0 -0 -0 -0 -0
-0 -0 -0 -0 -0 -0 -0 -0 -0 -0 -0 -0 -0 -0 -0 -0 -0 -0 -0 -0 -0 -0 -0 -0 -0 -0 -0 -0 -0 -0 -0 -0 -0 -0 -0 -0 -0 -0 -0 -0 -0 -0 -0 -0
-0 -0 -0 -0 -0 -0 -0 -0 -0 -0 -0 -0 -0 -0 -0 -0 -0 -0 -0 -0 -0 -0 -0 -0 -0 -0 -0 -0 -0 -0 -0 -0 -0 -0 -0 -0 -0 -0 -0 -0 -0 -0 -0 -0
-0 -0 -0 -0 -1 -0 -0 -0 -0 -0 -0 -0 -0 -0 -0 -0 -0 -0 -0 -0 -0 -0 -0 -0 -0 -0 -0 -0 -0 -0 -0 -0 -0 -0 -0 -0 -0 -0 -0 -0 -0 -0 -0 -0
-0 -0 -0 -0 -0 -0 -0 -0 -0 -0 -0 -0 -0 -0 -0 -0 -0 -0 -0 -0 -0 -0 -0 -0 -0 -0 -0 -0 -0 -0 -0 -0 -0 -0 -0 -0 -0 -0 -0 -0 -0 -0 -0 -0
-0 -0 -0 -0 -0 -0 -0 -0 -0 -0 -0 -0 -0 -0 -0 -0 -0 -0 -0 -0 -0 -0 -0 -0 -0 -0 -0 -0 -0 -0 -0 -0 -0 -0 -0 -0 -0 -0 -0 -0 -0 -0 -0 -0
-0 -0 -0 -0 -0 -0 -0 -0 -0 -0 -0 -0 -0 -0 -0 -0 -0 -0 -0 -0 -0 -0 -0 -0 -0 -0 -0 -0 -0 -0 -0 -0 -0 -0 -0 -0 -0 -0 -0 -0 -0 -0 -0 -0
-0 -0 -0 -0 -0 -0 -0 -0 -0 -0 -0 -0 -0 -0 -0 -0 -0 -0 -0 -0 -0 -0 -0 -0 -0 -0 -0 -0 -0 -0 -0 -0 -0 -0 -0 -0 -0 -0 -0 -0 -0 -0 -0 -0
Wind_Speed
20 23 25 21 20 21 19 20 21 21 20 22 27 31 32 34 34 36 37 38 39 38 34 31 16 11 15 13 13 14 13 14 12 12 12 12 14 10 11 12 12 11 11 11
22 29 23 22 21 22 24 26 26 25 22 24 30 36 36 36 39 38 37 37 39 38 37 38 32 16 9 15 15 13 14 13 14 14 14 13 12 11 11 11 11 13 13 13
26 23 21 21 21 21 23 26 26 28 25 27 32 39 34 26 25 29 32 31 31 30 30 30 29 29 18 11 12 13 14 13 13 13 11 12 12 13 12 13 13 14 14 14
28 25 20 21 23 21 26 23 24 27 29 34 25 39 31 32 32 31 32 29 29 28 27 27 28 28 27 19 13 13 13 13 12 11 11 14 16 16 15 15 14 14 14 15
28 24 26 24 25 22 27 21 24 25 28 31 31 35 32 27 31 30 28 23 20 20 19 20 21 22 24 23 20 15 14 14 14 13 14 14 16 16 17 16 15 15 16 15
27 22 23 26 22 20 16 19 22 24 27 39 32 31 34 25 20 19 18 16 19 20 22 23 24 25 26 27 27 23 18 16 16 15 16 16 17 17 18 17 17 17 17 18
27 26 23 20 22 20 21 21 30 33 33 39 27 31 36 25 20 20 22 22 24 24 25 27 29 29 30 30 28 24 21 19 18 17 17 18 19 19 19 18 18 18 18 19
33 36 27 23 24 24 23 24 28 35 36 35 27 35 29 21 21 24 23 21 21 23 24 26 27 28 29 29 28 25 25 24 21 19 19 19 20 21 21 21 20 19 19 19
33 37 25 24 24 21 27 31 24 31 32 39 34 32 30 26 23 20 21 22 23 23 23 24 26 27 27 26 27 28 27 27 25 23 23 23 22 22 22 21 21 21 20 20
28 33 28 26 23 24 26 20 29 29 39 44 39 37 33 24 19 19 20 22 23 23 25 28 28 30 30 29 28 28 27 27 25 23 22 22 22 21 21 21 20 20 20 20
28 32 29 24 30 28 26 29 27 26 30 38 43 38 26 25 16 17 20 22 24 29 31 32 30 31 31 31 30 29 28 27 25 23 23 23 23 22 21 20 21 21 22 23
29 29 35 32 27 26 28 30 30 35 35 35 38 45 21 14 14 20 23 29 33 35 37 34 32 33 34 34 34 35 35 32 30 30 29 30 30 29 28 28 28 27 28 27
20 28 32 32 29 25 29 28 30 30 29 35 36 36 15 17 25 27 32 36 39 38 37 36 36 40 40 39 39 38 37 37 36 35 35 36 36 35 34 34 34 33 33 34
20 22 27 34 29 25 29 27 26 29 35 36 38 42 33 38 39 44 46 46 45 43 40 41 41 41 42 41 40 40 39 37 37 37 38 39 39 39 39 39 38 37 35 36
23 28 26 24 23 25 27 31 31 33 32 37 37 44 43 44 48 48 43 41 40 40 40 40 40 40 40 41 40 40 39 39 39 40 40 41 41 42 42 41 40 39 38 37
26 30 30 33 30 31 36 36 36 39 39 43 44 55 50 49 39 39 39 39 37 37 37 38 39 39 40 41 41 42 42 42 43 43 44 44 45 44 43 42 42 40 39 38
29 31 33 38 34 34 44 42 39 40 39 40 45 47 43 41 39 39 37 34 37 38 39 40 41 41 42 43 43 45 46 45 45 45 45 44 44 44 44 43 42 41 40 37
31 31 32 36 33 47 40 32 32 36 38 33 37 37 37 39 39 37 32 36 39 41 42 43 43 44 44 44 45 46 46 46 46 45 44 43 43 43 42 41 40 39 38 37
27 29 34 39 41 45 46 37 35 36 41 33 34 32 34 38 41 39 28 36 40 42 42 42 42 43 45 45 45 47 47 46 45 45 44 43 42 43 42 41 41 39 37 36
29 30 34 35 42 49 42 29 24 26 46 29 29 30 33 35 45 42 37 39 39 41 41 43 43 42 43 44 43 45 45 45 45 44 45 43 43 43 42 40 39 37 36 37
35 36 41 40 43 45 41 31 28 40 44 25 27 29 32 38 37 42 42 42 40 40 41 40 41 43 43 41 42 45 44 45 43 44 44 43 41 40 39 38 37 36 36 36
36 38 43 41 44 55 33 31 38 33 25 26 29 32 36 38 41 42 45 42 40 43 42 42 44 44 43 42 43 46 46 43 43 42 42 42 41 39 38 37 36 35 34 34
40 36 38 37 41 32 29 30 25 24 26 29 31 34 36 40 42 41 43 46 45 43 43 42 44 46 44 43 43 47 45 44 44 44 43 42 41 40 38 38 37 35 33 32
36 31 40 37 38 35 29 28 28 25 29 33 33 38 38 42 42 43 44 47 46 44 45 43 45 46 47 44 44 44 44 44 45 46 45 42 41 41 38 35 33 32 32 31
36 32 38 41 41 36 33 31 31 35 38 38 40 41 42 41 43 43 44 44 45 45 43 42 44 45 46 44 44 43 44 44 45 45 43 41 40 38 37 36 33 30 28 28
34 39 43 46 34 36 41 41 41 44 45 45 46 47 41 39 41 40 42 42 41 42 42 43 43 43 43 43 43 42 41 42 43 43 41 39 38 37 36 34 32 24 25 23
Wind_Direction
259 258 256 261 264 276 278 279 280 286 290 286 282 280 280 279 280 276 269 268 260 250 241 284 296 212 208 210 210 207 208 209 210 212 214 214 212 215 216 214 214 214 215 221
261 257 264 270 268 269 273 275 278 284 290 286 285 279 280 281 274 278 276 276 270 274 277 272 283 293 246 217 216 221 216 215 216 218 222 227 232 236 233 233 230 224 224 225
257 269 265 266 267 268 272 273 278 280 289 289 288 280 285 293 295 291 287 287 289 288 291 290 290 289 292 263 234 228 225 225 225 227 247 274 282 283 259 254 245 235 233 233
262 265 273 262 266 270 270 279 281 282 284 278 293 277 287 290 288 287 286 293 293 295 298 298 295 293 293 294 280 256 254 248 245 246 250 241 246 251 260 259 265 254 244 241
261 264 261 266 267 271 274 284 284 286 284 284 283 282 283 297 294 291 295 299 313 319 321 318 316 309 304 304 306 296 281 270 265 255 253 257 262 272 284 279 272 263 254 255
262 273 269 266 272 273 279 283 289 290 287 275 281 281 281 292 304 311 323 324 317 319 318 315 312 311 310 310 308 305 297 285 275 267 267 266 270 278 283 281 274 274 270 261
262 263 270 272 268 271 271 275 276 277 275 273 288 282 280 292 296 306 312 314 313 314 316 314 312 308 309 310 313 313 308 302 294 283 279 277 277 278 277 279 279 278 274 273
254 259 258 262 265 266 263 266 270 273 274 278 286 279 287 297 299 308 315 322 322 319 319 319 320 319 315 312 313 313 312 307 303 296 291 289 287 285 286 286 286 284 280 279
257 260 269 264 266 262 265 264 274 278 282 279 279 283 290 295 302 316 319 319 321 325 326 329 328 330 329 325 318 314 311 309 307 304 300 297 295 291 290 289 288 289 289 289
261 264 268 264 267 269 266 266 270 273 273 274 277 280 279 294 298 313 319 322 323 323 324 325 323 324 324 324 324 323 320 315 312 309 307 305 302 298 295 293 290 290 291 290
257 261 268 264 259 258 263 263 272 274 272 274 277 280 291 286 293 308 316 323 324 322 318 319 317 320 320 321 321 321 322 322 316 314 312 312 311 307 302 297 295 293 294 293
252 263 261 263 273 270 266 265 261 266 271 273 276 274 297 298 300 309 312 314 315 316 315 316 316 316 315 315 314 313 314 312 310 308 306 306 309 307 302 299 298 297 294 293
248 259 260 265 269 271 267 267 266 269 274 268 272 277 287 292 302 306 307 309 310 311 312 313 315 313 315 315 315 313 311 308 306 304 303 302 302 303 302 300 298 296 295 293
258 263 263 262 269 270 264 268 270 266 267 269 267 274 275 286 294 295 301 304 304 307 309 310 311 312 312 315 316 315 313 311 308 305 303 301 301 301 301 300 299 297 295 295
265 262 266 271 272 274 272 270 270 269 272 271 277 276 278 286 291 295 300 305 307 308 310 310 311 313 314 314 315 316 316 315 314 309 305 303 301 301 301 300 300 298 297 296
268 266 268 268 272 273 273 272 273 272 273 276 279 277 283 290 296 298 303 306 308 310 312 313 314 314 315 315 315 315 314 313 312 309 307 306 305 303 302 301 300 300 299 297
264 265 267 269 273 273 274 271 270 273 274 277 277 281 289 289 294 298 303 307 308 309 310 311 311 312 313 314 314 312 312 312 310 309 308 307 306 305 304 303 302 301 300 299
263 264 267 269 271 268 274 283 282 275 278 278 280 286 290 291 295 300 302 306 307 308 308 309 309 309 311 312 312 313 313 312 311 310 310 310 309 307 307 306 305 303 302 300
266 263 268 267 267 276 276 278 280 279 280 280 282 288 292 296 297 298 297 306 307 308 309 309 311 311 311 312 313 312 311 313 312 311 311 312 312 310 309 308 307 307 305 303
265 267 266 270 271 271 280 290 294 290 279 284 287 290 294 298 292 295 302 306 308 310 310 309 311 313 314 315 316 314 313 311 312 312 310 311 311 310 310 310 310 309 308 305
258 262 262 267 272 276 279 284 296 280 285 288 291 294 296 295 296 300 304 307 310 310 311 313 313 312 314 318 318 315 316 314 313 311 311 311 311 312 313 312 312 309 308 307
261 262 265 267 270 273 285 287 280 290 294 294 295 297 297 298 300 302 302 307 310 311 311 312 311 312 314 316 315 313 313 315 315 314 313 312 312 312 312 311 311 311 310 308
265 267 270 268 273 283 289 290 295 296 295 297 299 302 301 300 301 303 303 304 307 309 310 311 311 310 312 313 313 311 312 313 312 312 311 311 312 312 311 309 308 310 309 308
271 274 273 276 276 281 284 291 296 294 297 300 302 303 304 301 301 301 303 304 305 307 309 310 310 309 309 311 311 311 311 312 310 308 308 309 309 310 310 311 311 310 310 310
271 275 275 277 278 283 284 288 293 295 297 298 300 300 299 301 300 302 303 305 306 307 308 310 309 309 309 310 310 310 311 310 309 308 308 307 306 307 308 307 310 313 313 312
275 275 274 276 282 284 284 288 293 294 295 297 299 299 300 299 299 302 303 306 307 307 309 309 310 309 310 310 311 311 312 312 310 307 307 306 306 305 305 306 307 318 316 320